CZ-6A DEB, 54390

Orbit data source: Space-Track

CZ-6A DEB, 54390 is space debris in SSO originally from a launch on Fri, 11 Nov 2022 UTC launched from the Taiyaun Space Center, China (TSC). Debris objects in space refer to the collection of defunct objects orbiting the Earth. Examples of debris include non-operational satellites, rocket bodies, and fragments generated from explosions, collisions, or faulty payload assembly.

Loading next visibility...
Identifier
54390, 2022-151DN
Orbit
SSO
Country
Flag of CNCN / PRC
Related business
Manufacturer
SAST
Mission
Spacecraft
Bus & Motor
Unknown
Mass
Unknown
Launch date (UTC)
2022-11-11 (3 years ago)
Launch vehicle
Unknown
Launch site
Taiyaun Space Center, China (TSC)
Object type
Payload
Rocket body
Debris
Shape & HBR
Unknown shape, 0.3 m
Radar Cross Section
Small (<0.1 m²)

Expand to show TLE details & history
Last TLE update: 1 day ago

TLE from 1 day ago
0 CZ-6A DEB
1 54390U 22151DN  25352.40119939  .00000530  00000-0  41073-3 0  9991
2 54390  98.9525 329.5849 0126072 212.4075 146.9299 13.93358747157003
Epoch: 2025-12-18T09:37Z
TLE epoch observation values (Epoch: 2025-12-18T09:37:43.627Z)
Latitude
0.00001°
Longitude
97.89588°
Altitude
997.18 km
Speed
7.314 km/s
True Right ascension
21h 58m 20s
True Declination
0° 00' 00"
Sunlit
Object was in daylight at epoch
Visualization orbit readout
Latitude
Unknown
Longitude
Unknown
Altitude
Unknown
Speed
Unknown
Apparent Right ascension
Unknown
Apparent Declination
Unknown
Sunlit
N/A
Visualization observer readout
Local Sidereal Time
10:00:40
Azimuth
Unknown
Elevation
Unknown
Doppler factor
Unknown
Orbital elements
Apogee altitude
1,006.024 km
Perigee altitude
822.155 km
Semi-major axis
7,292.226 km
Eccentricity
0.01261
Inclination
98.9525°
RAAN
329.5849°
Arg. of periapsis
212.4075°
True anomaly
147.70791°
Mean anomaly
146.9299°
Eccentric anomaly
147.31993°
Mean motion
3.4854 °/min
Orbital period
103.29 mins
BSTAR
0.00041073
Loading maneuver chart data...
Computing Atmospheric mass density...
Loading historical data...
Loading historical data...
Loading historical data...
Loading historical data...
Loading historical data...
Loading historical data...
Loading historical data...

Documentation

Showing up to 5 results
|